Regional Weather Roundup
Issued by NWS Green Bay, WI

Home | Current Version | Previous Version | Text Only | Print | Product List | Glossary On
Versions: 1 2 3 4 5 6 7 8 9 10 11 12 13 14 15 16 17 18 19 20 21 22 23 24 25 26 27 28 29 30 31 32 33 34 35 36 37 38 39 40 41 42 43 44 45 46 47 48 49 50
000
ASUS43 KGRB 230710
RWRGRB

NORTH-CENTRAL AND NORTHEAST WISCONSIN REGIONAL WEATHER ROUNDUP
NATIONAL WEATHER SERVICE GREEN BAY WI
100 AM CST MON JAN 23 2017

WIZ005-009-010>012-018-019-230800-
NORTH CENTRAL WISCONSIN

CITY           SKY/WX    TMP DP  RH WIND       PRES   REMARKS
IRONWOOD       LGT RAIN  34  34 100 S3        29.73R VSB 1
MANITOWISH WTR FOG       32  32 100 CALM      29.72R VSB 1
ARBOR VITAE    CLOUDY    34  33  96 CALM      29.72R
EAGLE RIVER    CLOUDY    32  32 100 CALM      29.71R FOG
LAND O LAKES   CLOUDY    33  33 100 CALM      29.72R FOG
RHINELANDER    CLOUDY    35  33  92 CALM      29.72R
PHILLIPS       CLOUDY    32  32 100 CALM      29.72R FOG
ANTIGO         CLOUDY    33  33 100 N3        29.72R
TOMAHAWK       CLOUDY    32  32  99 CALM      29.73R
MERRILL        CLOUDY    33  33 100 CALM        N/A
$$

WIZ013-073-230800-
NORTHEAST WISCONSIN

CITY           SKY/WX    TMP DP  RH WIND       PRES   REMARKS
IRON MOUNTAIN  CLOUDY    34  32  92 CALM      29.71R
MARINETTE      NOT AVBL
OCONTO         CLOUDY    34  34 100 CALM      29.73R VSB 1/2
$$

WIZ017-030-035>037-045-230800-
CENTRAL WISCONSIN

CITY           SKY/WX    TMP DP  RH WIND       PRES   REMARKS
MEDFORD        CLOUDY    33  33  99 W3        29.73S FOG
WAUSAU         CLOUDY    34  34 100 NW3       29.72R
MOSINEE        CLOUDY    34  34 100 W3        29.74R
MARSHFIELD     CLOUDY    33  33 100 NW7       29.73R FOG
WISC RAPIDS    FOG       35  35 100 CALM      29.75S VSB 1/2
STEVENS POINT  CLOUDY    33  33 100 CALM      29.74S FOG
WAUPACA        CLOUDY    38  37  95 CALM      29.74R
SHAWANO        CLOUDY    38  37  95 NW3       29.73S
CLINTONVILLE   CLOUDY    36  34  93 CALM      29.73S
WAUTOMA        FOG       35  34  96 W5        29.75S VSB 1/2
$$

WIZ038-039-048-051-230800-
FOX VALLEY

CITY           SKY/WX    TMP DP  RH WIND       PRES   REMARKS
NWS GREEN BAY  CLOUDY    37  37 100 NW7       29.72F FOG
APPLETON       CLOUDY    34  34 100 W8        29.71S FOG
OSHKOSH        CLOUDY    36  34  92 W6        29.72S FOG
FOND DU LAC    CLOUDY    36  33  89 CALM      29.73S
$$

WIZ022-050-052-230800-
EAST CENTRAL WISCONSIN

CITY           SKY/WX    TMP DP  RH WIND       PRES   REMARKS
EPHRAIM        FOG       34  34 100 CALM      29.71R VSB 1/2
WASHINGTON ISL FOG       33  33 100 CALM      29.71R VSB 1/2
STURGEON BAY   FOG       35  35 100 W3        29.72S VSB 3/4
MANITOWOC      FOG       36  36 100 MISG      29.73S VSB 3/4
SHEBOYGAN      CLOUDY    36  34  92 NW3       29.71F FOG
$$

LMZ563-521-522-541>543-230800-
LAKESHORE

STATION/POSITION TIME  TEMP    WIND        PRES    VSBY  WAVE
                       AIR SEA DIR/SP/G                  HT/PER
                 (UTC) (F)     (DEG/KT/KT) (MB)    (MI)  (FT/S)
SHEBOYGAN LKSHOR 0700   38     270/  4/  5 1006.5F
KEWAUNEE LKSHORE 0648   36     300/  2/  5 1006.2R
NORTHPORT PIER   0640   34        CALM     1006.4R
SISTER BAY LKSHO 0620   33        CALM       N/A
MENOMINEE LKSHOR 0648          230/  2/  3 1005.9R
$$




USA.gov is the U.S. government's official web portal to all federal, state and local government web resources and services.